STARLINK-4710 (53799 NORAD) Tracking and Keplerian Element Data

This shows tracking and keplerian element data for the satellite.

Feedback or suggestion? Click here.




ElementValue
Catalog53799
NameSTARLINK-4710
Epoch Orbit1113
Epoch Day325.33334491
Epoch Year2022
RAAN274.7185
Inclination53.217
Eccentricity0.0001106
Argument of Perigee87.9194
Mean Anonmoly217.5166
Mean Motion15.5788286
Decay Rate-0.01127527
L11 53799U 22111AC 22325.33334491 -.01127527 00000+0 -16415-1 0 9998
L22 53799 53.2170 274.7185 0001106 87.9194 217.5166 15.57882860 11137



Live tracking and technical data element details for STARLINK-4710 (NORAD 53799). STARLINK-4710 can be tracked NOW for your location showing map with azimuth and elevation plus other details from your city location.







IsCatalogInMostPopularTable: catalog: 53799, numindb: 1
Update: records affected: 1



GetName: 53799 STARLINK-4710

Hit Count: updated at: Thu, 08 Dec 2022 10:13:36 GMT